Location: Asheville, NC
(35.6000°N, 82.5500°W)
Time: 18:59:01

Vanguard 1 Rocket - Pass Details

Date: 15 March 2018
Orbit: 655 x 4222 km, 34.3° (Epoch: 20 March)

Event Time Altitude Azimuth Distance (km) Brightness Sun altitude
Rises 21:16:24 0° 271° (W) 4,231 12.3 -20.7°
Reaches altitude 10° 21:18:39 10° 271° (W) 3,547 11.5 -21.2°
Maximum altitude 21:28:13 84° 184° (S) 2,229 9.2 -23.0°
Enters shadow 21:38:01 33° 100° (E) 4,232 10.1 -24.9°
Drops below altitude 10° 21:47:46 10° 99° (E) 6,664 - -26.8°
Sets 21:53:53 0° 100° (E) 8,066 - -28.0°
